Home > Weather > Barranquilla > Past weeks

Flag for Colombia Weather for the Past 2 Weeks in Barranquilla, Colombia

Now
79 °F

Passing clouds.


Feels Like: 83 °F
Forecast: 79 / 87 °F
Wind: 8 mph from North

Location: Barranquilla / Ernestocortissoz

Current Time: Feb 6, 2016 at 8:49:12 PM

Latest Report: Feb 6, 2016 at 8:00 PM


Visibility: N/A

Pressure: 29.82 "Hg

Humidity: 94%

Dew point: 77 °F

Location of BarranquillaLocation

Historic Weather in Barranquilla — Graph

°F

Barranquilla Temperature Yesterday

Maximum temperature yesterday: 91 °F (at 12:00 PM)
Minimum temperature yesterday: 77 °F (at 4:00 AM)
Average temperature yesterday: 81 °F

High & Low Weather Summary for the Past Weeks

 TemperatureHumidityPressure
High93 °F (Jan 28, 12:00 PM)100% (Jan 28, 6:00 AM)29.99 "Hg (Jan 28, 6:00 AM)
Low73 °F (Jan 28, 5:00 AM)52% (Jan 27, 1:00 PM)29.75 "Hg (Jan 27, 4:00 PM)
Average82 °F78%29.85 "Hg
* Reported Jan 22 7:00 PM — Feb 6 7:00 PM, Barranquilla, Weather by CustomWeather, © 2016

Note: Actual official high and low records may vary slightly from our data, if they occured in-between our weather recording intervals... More about our weather records

Advertising

Barranquilla Weather History for the Previous 24 Hours

 ConditionsComfort  
Time TempWeatherWind HumidityBarometerVisibility
7:00 PM
Sat, Feb 6
79 °FPassing clouds.6 mph94%29.80 "HgN/A
6:00 PM81 °FPassing clouds.12 mph84%29.79 "HgN/A
5:00 PM84 °FSunny.12 mph74%29.77 "Hg10 mi
4:00 PM86 °FSunny.14 mph70%29.78 "Hg10 mi
3:00 PM86 °FSunny.10 mph70%29.78 "Hg10 mi
2:00 PM88 °FSunny.12 mph62%29.80 "Hg10 mi
1:00 PM90 °FSunny.8 mph59%29.83 "Hg10 mi
12:00 PM88 °FSunny.15 mph62%29.86 "Hg10 mi
11:00 AM88 °FSunny.10 mph62%29.89 "Hg10 mi
10:00 AM86 °FSunny.7 mph66%29.91 "Hg10 mi
9:00 AM82 °FSunny.10 mph70%29.90 "Hg10 mi
8:00 AM81 °FSunny.12 mph74%29.89 "Hg10 mi
7:00 AM77 °FSunny.6 mph83%29.88 "Hg10 mi
6:00 AM77 °FClear.6 mph89%29.86 "Hg10 mi
5:00 AM77 °FClear.9 mph89%29.85 "Hg10 mi
4:00 AM79 °FClear.12 mph84%29.84 "Hg10 mi
3:00 AM79 °FClear.14 mph84%29.83 "Hg10 mi
2:00 AM79 °FClear.20 mph84%29.84 "Hg10 mi
1:00 AM79 °FClear.16 mph70%29.85 "Hg10 mi
12:00 AM79 °FClear.16 mph74%29.88 "Hg10 mi
11:00 PM
Fri, Feb 5
79 °FClear.14 mph84%29.88 "Hg10 mi
10:00 PM79 °FClear.23 mph84%29.89 "Hg10 mi
9:00 PM79 °FClear.12 mph84%29.88 "Hg10 mi
8:00 PM79 °FClear.15 mph84%29.86 "Hg10 mi
Weather by CustomWeather, © 2016

See weather overviewHow to use our weather pages